1485367201.23,28509,10.94,73504.8,-12.59,-36.31,-37.39,0,*60
1485367202.48,28510,10.94,73506.8,-12.63,-36.13,-37.27,0,*6E
1485367203.74,28511,10.94,73514.5,-12.63,-36.13,-37.09,0,*63
1485367204.96,28512,11.0,73522.3,-12.63,-35.89,-36.85,0,*65
1485367206.19,28513,11.0,73524.5,-12.63,-35.71,-36.73,0,*6A
1485367207.43,28514,10.94,73516.8,-12.63,-35.59,-36.49,0,*6E
1485367208.67,28515,10.94,73522.0,-12.63,-35.53,-36.55,0,*68
1485367209.9,28516,10.94,73522.0,-12.63,-35.71,-36.67,0,*6A
1485367211.12,28517,11.0,73530.0,-12.63,-35.71,-36.73,0,*6E
1485367212.35,28518,11.0,73532.8,-12.63,-35.71,-36.73,0,*61
1485367213.57,28519,11.0,73538.5,-12.59,-35.59,-36.67,0,*66
1485367214.81,28520,10.94,73534.3,-12.63,-35.53,-36.55,0,*6E
1485367216.04,28521,11.0,73536.8,-12.63,-35.71,-36.73,0,*6B
1485367217.26,28522,10.94,73536.0,-12.63,-35.77,-36.73,0,*6E
1485367218.49,28523,10.94,73534.3,-12.63,-35.59,-36.67,0,*66
1485367219.71,28524,10.94,73538.5,-12.63,-35.77,-36.73,0,*68
1485367220.94,28525,10.94,73540.0,-12.63,-35.71,-36.73,0,*6F
1485367222.16,28526,10.94,73532.0,-12.63,-35.59,-36.67,0,*63
1485367223.43,28527,10.94,73534.3,-12.65,-35.41,-36.55,0,*6C
1485367224.69,28528,10.94,73524.5,-12.65,-35.47,-36.61,0,*62
1485367225.96,28529,10.94,73522.8,-12.63,-35.35,-36.49,0,*6A
1485367227.23,28530,10.94,73516.5,-12.59,-35.41,-36.49,0,*68
1485367228.45,28531,10.94,73514.3,-12.59,-35.59,-36.67,0,*6C
1485367229.67,28532,10.94,73514.5,-12.59,-35.71,-36.73,0,*60
1485367230.89,28533,10.94,73520.3,-12.63,-35.77,-36.85,0,*67
1485367232.11,28534,10.94,73514.5,-12.59,-35.71,-36.73,0,*66
1485367233.34,28535,10.94,73520.0,-12.59,-35.71,-36.73,0,*67
1485367234.56,28536,10.94,73524.5,-12.59,-35.71,-36.73,0,*64
1485367235.77,28537,10.94,73524.5,-12.59,-35.71,-36.85,0,*6C
1485367237.02,28538,10.94,73524.8,-12.59,-35.89,-36.91,0,*61
1485367238.24,28539,10.94,73528.5,-12.59,-35.59,-36.67,0,*64
1485367239.5,28540,10.94,73526.8,-12.59,-35.41,-36.49,0,*6F
1485367240.75,28541,10.94,73528.0,-12.59,-35.53,-36.55,0,*60
1485367241.97,28542,10.94,73530.3,-12.59,-35.71,-36.73,0,*67
1485367243.22,28543,10.94,73532.5,-12.59,-35.53,-36.55,0,*62
1485367244.48,28544,10.94,73530.8,-12.57,-35.65,-36.67,0,*6F
1485367245.7,28545,10.94,73538.5,-12.59,-35.77,-36.85,0,*6F
1485367246.93,28546,10.94,73536.0,-12.59,-35.71,-36.67,0,*66
1485367248.15,28547,10.94,73534.3,-12.59,-35.71,-36.73,0,*62
1485367249.37,28548,11.0,73530.8,-12.59,-35.77,-36.73,0,*6B
1485367250.62,28549,10.94,73524.5,-12.59,-35.89,-36.91,0,*67
1485367251.87,28550,10.94,73516.8,-12.59,-35.95,-37.03,0,*68
1485367253.14,28551,10.94,73532.0,-12.63,-35.95,-36.91,0,*6A
1485367254.39,28552,10.94,73526.8,-12.59,-35.89,-36.91,0,*6D
1485367255.64,28553,11.0,73520.5,-12.59,-35.95,-37.03,0,*6B
1485367256.91,28554,10.94,73520.8,-12.63,-35.95,-37.09,0,*6F
1485367258.16,28555,10.94,73520.0,-12.59,-36.07,-37.09,0,*6F
1485367259.41,28556,11.0,73530.8,-12.63,-36.07,-37.09,0,*65
1485367260.66,28557,11.0,73546.0,-12.63,-36.07,-37.09,0,*64
1485367261.88,28558,10.94,73532.0,-12.63,-36.07,-37.03,0,*61
1485367263.12,28559,10.94,73530.0,-12.57,-35.89,-36.97,0,*6E
1485367264.37,28560,10.94,73528.3,-12.63,-35.95,-37.03,0,*62
1485367265.62,28561,10.94,73532.5,-12.63,-35.95,-37.03,0,*63
1485367266.87,28562,10.94,73530.5,-12.63,-35.95,-37.03,0,*60
1485367268.14,28563,10.94,73532.3,-12.65,-36.01,-37.09,0,*63
1485367269.38,28564,11.0,73534.8,-12.65,-36.01,-37.15,0,*69
1485367270.66,28565,10.94,73534.8,-12.63,-35.95,-37.09,0,*6D
1485367271.9,28566,10.94,73524.5,-12.65,-36.19,-37.15,0,*62
1485367273.15,28567,11.0,73534.8,-12.63,-36.07,-37.09,0,*67
1485367274.38,28568,10.94,73534.3,-12.63,-35.71,-36.67,0,*63
1485367275.63,28569,10.94,73536.8,-12.63,-35.77,-36.91,0,*6D
1485367276.84,28570,10.94,73532.0,-12.63,-35.89,-36.85,0,*61
1485367278.11,28571,10.94,73536.0,-12.65,-35.95,-36.97,0,*68
1485367279.34,28572,10.94,73536.8,-12.63,-35.77,-36.73,0,*6B
1485367280.61,28573,10.94,73536.8,-12.63,-35.95,-36.91,0,*6A
1485367281.9,28574,11.0,73548.3,-12.65,-35.83,-36.91,0,*6C
1485367283.17,28575,11.0,73536.0,-12.65,-35.83,-36.97,0,*6B
1485367284.42,28576,11.0,73532.8,-12.63,-35.89,-36.91,0,*62
1485367285.69,28577,10.94,73530.8,-12.63,-35.95,-36.91,0,*6E
1485367286.97,28578,10.94,73532.5,-12.63,-35.95,-37.09,0,*61
1485367288.22,28579,10.94,73528.8,-12.63,-35.95,-37.03,0,*6A
1485367289.49,28580,10.94,73530.8,-12.63,-35.95,-36.91,0,*66
1485367290.71,28581,10.94,73526.0,-12.63,-35.89,-37.03,0,*60
1485367291.99,28582,10.94,73528.5,-12.63,-35.95,-36.91,0,*64
1485367293.24,28583,10.94,73528.5,-12.63,-35.95,-37.03,0,*6F
1485367294.51,28584,10.94,73528.0,-12.63,-35.95,-37.09,0,*62
1485367295.73,28585,11.0,73528.0,-12.59,-36.07,-37.27,0,*6E
1485367297.0,28586,10.94,73528.8,-12.63,-36.13,-37.21,0,*67
1485367298.22,28587,11.0,73528.8,-12.59,-36.07,-37.27,0,*6C
1485367299.49,28588,11.0,73520.0,-12.63,-36.13,-37.21,0,*69
1485367300.76,28589,10.94,73516.5,-12.63,-36.13,-37.39,0,*61
1485367302.03,28590,10.94,73506.0,-12.63,-36.13,-37.39,0,*69
1485367303.31,28591,10.94,73518.0,-12.63,-36.25,-37.21,0,*64
1485367304.53,28592,10.94,73522.0,-12.63,-36.07,-37.03,0,*67
1485367305.78,28593,10.94,73522.0,-12.63,-36.07,-37.21,0,*66
1485367307.05,28594,10.94,73528.0,-12.63,-36.13,-37.09,0,*6E
1485367308.27,28595,10.94,73526.8,-12.63,-35.89,-36.85,0,*6A
1485367309.55,28596,10.94,73528.8,-12.63,-35.95,-36.91,0,*61
1485367310.79,28597,10.94,73530.3,-12.63,-36.13,-37.27,0,*61
1485367312.03,28598,10.94,73526.8,-12.63,-36.13,-37.27,0,*6E
1485367313.27,28599,10.94,73522.8,-12.63,-36.13,-37.27,0,*6F
1485367314.51,28600,10.94,73526.3,-12.63,-36.25,-37.27,0,*69
1485367315.79,28601,10.94,73524.3,-12.63,-36.13,-37.21,0,*6B
1485367317.05,28602,10.94,73532.8,-12.63,-36.13,-37.21,0,*68
1485367318.32,28603,10.94,73522.5,-12.63,-36.13,-37.21,0,*69
1485367319.57,28604,11.0,73520.0,-12.65,-36.19,-37.15,0,*65
1485367320.82,28605,10.94,73516.8,-12.63,-36.07,-37.09,0,*60
1485367322.09,28606,10.94,73522.0,-12.63,-36.13,-37.39,0,*65
1485367323.33,28607,10.94,73528.8,-12.63,-36.13,-37.27,0,*6B
1485367324.61,28608,10.94,73526.3,-12.63,-36.25,-37.39,0,*6E
1485367325.84,28609,10.94,73526.0,-12.65,-36.19,-37.45,0,*6D
1485367327.06,28610,11.0,73524.3,-12.63,-36.31,-37.45,0,*69
1485367328.31,28611,11.0,73528.3,-12.63,-36.07,-37.21,0,*6F
1485367329.56,28612,10.94,73530.3,-12.63,-36.07,-37.09,0,*66
1485367330.78,28613,10.94,73534.0,-12.63,-36.07,-37.03,0,*6D
1485367332.02,28614,10.94,73538.8,-12.65,-36.19,-37.33,0,*60
1485367333.26,28615,10.94,73536.3,-12.63,-36.13,-37.27,0,*68
1485367334.5,28616,10.94,73534.0,-12.63,-36.13,-37.27,0,*6B
1485367335.75,28617,10.94,73538.8,-12.63,-36.07,-37.21,0,*69
1485367336.97,28618,10.94,73536.0,-12.63,-36.07,-37.03,0,*66
1485367338.21,28619,10.94,73534.5,-12.65,-36.19,-37.27,0,*68
1485367339.48,28620,10.94,73530.8,-12.65,-36.13,-37.15,0,*69
1485367340.74,28621,10.94,73528.8,-12.65,-36.13,-37.15,0,*68
1485367342.01,28622,10.94,73526.5,-12.63,-36.13,-37.09,0,*60
1485367343.3,28623,10.94,73528.3,-12.65,-36.13,-37.09,0,*67
1485367344.59,28624,10.94,73530.5,-12.65,-35.95,-36.91,0,*6D
1485367345.84,28625,10.94,73530.0,-12.63,-35.89,-36.91,0,*67
1485367347.12,28626,10.94,73532.5,-12.63,-35.95,-37.21,0,*63
1485367348.34,28627,10.94,73532.5,-12.63,-36.07,-37.27,0,*6C
1485367349.59,28628,10.94,73538.5,-12.63,-36.07,-37.21,0,*65
1485367350.83,28629,11.0,73536.8,-12.63,-36.13,-37.27,0,*67
1485367352.05,28630,11.0,73536.3,-12.63,-36.31,-37.45,0,*6B
1485367353.34,28631,10.94,73538.0,-12.65,-36.49,-37.51,0,*66
1485367354.59,28632,10.94,73528.0,-12.63,-36.25,-37.45,0,*6C
1485367355.83,28633,10.94,73528.8,-12.63,-36.25,-37.45,0,*6D
1485367357.08,28634,10.94,73528.8,-12.63,-36.25,-37.45,0,*6A
1485367358.3,28635,10.94,73532.0,-12.63,-36.31,-37.27,0,*6A
1485367359.57,28636,10.94,73528.5,-12.65,-36.31,-37.51,0,*6E
1485367360.81,28637,11.0,73528.5,-12.65,-36.19,-37.45,0,*60
1485367362.05,28638,10.94,73520.3,-12.63,-36.25,-37.45,0,*66
1485367363.3,28639,10.94,73522.0,-12.63,-36.25,-37.45,0,*67
1485367364.54,28640,10.94,73522.5,-12.63,-36.49,-37.45,0,*63
1485367365.76,28641,10.94,73522.5,-12.63,-36.55,-37.57,0,*6C
1485367367.01,28642,10.94,73518.5,-12.63,-36.49,-37.57,0,*62
1485367368.26,28643,10.94,73522.5,-12.63,-36.49,-37.57,0,*63
1485367369.56,28644,10.94,73522.3,-12.65,-36.61,-37.63,0,*6F
1485367370.85,28645,10.94,73520.0,-12.65,-36.61,-37.69,0,*64
1485367372.11,28646,10.94,73522.5,-12.65,-36.73,-37.69,0,*64
1485367373.39,28647,10.94,73522.3,-12.67,-36.61,-37.63,0,*6E
1485367374.69,28648,10.94,73522.0,-12.65,-36.61,-37.63,0,*63
1485367375.98,28649,10.94,73522.0,-12.65,-36.61,-37.69,0,*68
1485367377.22,28650,10.94,73526.3,-12.65,-36.01,-36.97,0,*66
1485367378.46,28651,10.94,73518.8,-12.65,-36.19,-37.15,0,*65
1485367379.75,28652,10.94,73508.8,-12.65,-36.13,-37.09,0,*61
1485367381.01,28653,10.94,73502.0,-12.65,-36.13,-37.27,0,*6C
1485367382.27,28654,11.0,73504.5,-12.65,-36.13,-37.33,0,*6E
1485367383.51,28655,11.0,73516.8,-12.65,-36.19,-37.33,0,*65
1485367384.78,28656,10.94,73518.5,-12.65,-35.77,-36.91,0,*64
1485367386.03,28657,10.94,73514.8,-12.63,-35.29,-36.25,0,*67
1485367387.28,28658,10.94,73516.8,-12.63,-35.13,-36.25,0,*61
1485367388.51,28659,10.94,73522.8,-12.63,-35.59,-36.55,0,*69
1485367389.72,28660,10.94,73526.5,-12.59,-35.89,-36.85,0,*6A
1485367390.97,28661,10.94,73528.8,-12.59,-35.95,-36.85,0,*66
1485367392.22,28662,10.94,73536.0,-12.59,-35.95,-37.03,0,*6A
1485367393.46,28663,10.94,73536.5,-12.59,-36.07,-37.09,0,*69
1485367394.73,28664,10.94,73542.0,-12.59,-36.13,-37.21,0,*61
1485367396.0,28665,10.94,73548.8,-12.63,-36.13,-37.39,0,*60
1485367397.25,28666,10.94,73544.8,-12.59,-35.83,-37.03,0,*69
1485367398.49,28667,10.94,73536.0,-12.59,-36.13,-37.27,0,*64
1485367399.76,28668,10.94,73546.8,-12.57,-36.19,-37.21,0,*69
1485367400.98,28669,10.94,73540.0,-12.59,-36.07,-37.15,0,*6E
1485367402.23,28670,10.94,73530.8,-12.59,-36.31,-37.39,0,*6D
1485367403.48,28671,10.94,73530.5,-12.59,-36.31,-37.39,0,*6C
1485367404.75,28672,10.94,73526.5,-12.59,-36.13,-37.21,0,*66
1485367406.03,28673,10.94,73524.8,-12.59,-36.25,-37.39,0,*6B
1485367407.33,28674,10.94,73520.5,-12.57,-36.37,-37.39,0,*61
1485367408.62,28675,10.94,73512.3,-12.57,-36.37,-37.51,0,*6E
1485367409.84,28676,10.94,73508.5,-12.59,-36.43,-37.57,0,*66
1485367411.14,28677,10.94,73522.0,-12.57,-36.37,-37.39,0,*62
1485367412.41,28678,10.94,73520.5,-12.57,-36.25,-37.33,0,*64
1485367413.68,28679,10.94,73526.8,-12.57,-36.43,-37.63,0,*60
1485367414.97,28680,10.94,73526.5,-12.57,-36.79,-37.93,0,*60
1485367416.26,28681,10.94,73520.3,-12.57,-36.79,-37.99,0,*6B
1485367417.51,28682,10.94,73522.5,-12.59,-36.91,-38.05,0,*6A
1485367418.77,28683,10.94,73522.3,-12.57,-36.97,-38.11,0,*66
1485367420.05,28684,10.94,73516.5,-12.59,-37.09,-38.23,0,*68
1485367421.33,28685,11.0,73514.8,-12.59,-37.09,-38.23,0,*69
1485367422.55,28686,10.94,73510.5,-12.59,-37.03,-38.17,0,*67
1485367423.8,28687,10.94,73510.8,-12.63,-37.03,-38.23,0,*68
1485367425.1,28688,10.94,73514.0,-12.65,-37.09,-38.23,0,*6B
1485367426.35,28689,10.94,73518.5,-12.63,-37.09,-38.17,0,*6B
1485367427.62,28690,10.94,73516.0,-12.63,-36.91,-38.23,0,*64
1485367428.84,28691,10.94,73518.0,-12.63,-37.03,-38.05,0,*6B
1485367430.11,28692,10.94,73522.8,-12.65,-36.79,-37.75,0,*6A
1485367431.37,28693,10.94,73522.5,-12.65,-36.79,-37.75,0,*6B
1485367432.62,28694,10.94,73524.0,-12.63,-36.73,-37.69,0,*6D
1485367433.91,28695,10.94,73524.3,-12.65,-36.79,-37.69,0,*60
1485367435.17,28696,10.94,73524.3,-12.65,-36.79,-37.75,0,*6E
1485367436.42,28697,10.94,73520.0,-12.63,-36.73,-37.69,0,*6E
1485367437.72,28698,10.94,73530.3,-12.65,-36.61,-37.63,0,*6E
1485367438.97,28699,10.94,73534.5,-12.63,-36.55,-37.63,0,*6E
1485367440.23,28700,10.94,73530.8,-12.63,-36.55,-37.63,0,*6F
1485367441.48,28701,10.94,73526.8,-12.63,-36.73,-37.63,0,*6A
1485367442.75,28702,10.94,73524.5,-12.65,-36.73,-37.69,0,*65
1485367444.05,28703,10.94,73524.5,-12.65,-36.61,-37.63,0,*6D
1485367445.31,28704,10.94,73534.8,-12.63,-36.55,-37.63,0,*6B
1485367446.56,28705,10.94,73534.3,-12.63,-36.67,-37.63,0,*6B
1485367447.81,28706,10.94,73538.0,-12.63,-36.85,-37.69,0,*6E
1485367449.1,28707,10.94,73534.8,-12.65,-36.79,-37.93,0,*6F
1485367450.34,28708,10.94,73532.3,-12.65,-36.73,-37.75,0,*62
1485367451.63,28709,10.94,73532.5,-12.65,-36.91,-37.93,0,*67
1485367452.92,28710,10.94,73534.5,-12.65,-36.79,-37.93,0,*69
1485367454.2,28711,10.94,73524.8,-12.63,-36.91,-37.99,0,*62
1485367455.47,28712,10.94,73522.8,-12.65,-36.91,-38.05,0,*6D
1485367456.72,28713,10.94,73524.3,-12.63,-36.85,-37.99,0,*65
1485367457.95,28714,10.94,73528.3,-12.63,-36.73,-37.87,0,*64
1485367459.22,28715,10.94,73530.8,-12.65,-36.91,-38.05,0,*6A
1485367460.51,28716,10.94,73524.3,-12.65,-37.09,-38.11,0,*6C
1485367461.78,28717,10.94,73528.8,-12.65,-36.97,-38.23,0,*6A
1485367463.0,28718,10.94,73530.0,-12.63,-37.03,-38.17,0,*68
1485367464.3,28719,10.94,73530.0,-12.65,-37.09,-38.29,0,*68
1485367465.55,28720,10.94,73530.3,-12.63,-37.03,-38.23,0,*64
1485367466.81,28721,10.94,73520.5,-12.63,-37.21,-38.43,0,*63
1485367468.05,28722,10.94,73524.3,-12.65,-37.27,-38.43,0,*60
1485367469.32,28723,10.94,73528.5,-12.65,-37.27,-38.49,0,*6B
1485367470.59,28724,10.94,73530.3,-12.65,-37.33,-38.67,0,*65
1485367471.81,28725,10.94,73530.0,-12.67,-37.33,-38.61,0,*60
1485367473.05,28726,10.94,73520.8,-12.67,-37.45,-38.67,0,*64
1485367474.29,28727,10.94,73522.8,-12.67,-37.57,-38.67,0,*66
1485367475.51,28728,10.94,73522.8,-12.67,-37.57,-38.85,0,*65
1485367476.72,28729,10.94,73528.0,-12.67,-37.57,-38.73,0,*6D
1485367477.99,28730,10.94,73532.5,-12.67,-37.69,-38.91,0,*64
1485367479.26,28731,10.94,73524.8,-12.67,-37.63,-38.79,0,*69
1485367480.5,28732,10.94,73520.0,-12.67,-37.57,-38.67,0,*62
1485367481.71,28733,10.94,73522.5,-12.67,-37.57,-38.73,0,*66
1485367482.98,28734,10.94,73516.0,-12.67,-37.39,-38.67,0,*6C
1485367484.23,28735,10.94,73520.3,-12.69,-37.39,-38.55,0,*62
1485367485.5,28736,10.94,73520.0,-12.69,-37.21,-38.49,0,*65
1485367486.71,28737,10.94,73524.8,-12.69,-37.15,-38.17,0,*68
1485367487.93,28738,10.94,73528.5,-12.69,-37.03,-38.17,0,*60
1485367489.15,28739,10.94,73534.3,-12.67,-37.15,-38.35,0,*68
1485367490.39,28740,10.94,73536.5,-12.69,-37.15,-38.29,0,*65
1485367491.61,28741,10.94,73540.0,-12.69,-36.97,-38.17,0,*62
1485367492.82,28742,10.94,73530.3,-12.69,-37.15,-38.17,0,*6A
1485367494.06,28743,10.94,73534.8,-12.69,-37.15,-38.11,0,*6D
1485367495.28,28744,10.94,73532.3,-12.69,-37.15,-38.35,0,*6C
1485367496.5,28745,10.94,73532.8,-12.69,-37.15,-38.35,0,*6D
1485367497.78,28746,10.94,73530.8,-12.69,-37.21,-38.29,0,*64
1485367499.05,28747,10.94,73526.8,-12.69,-37.21,-38.49,0,*63
1485367500.29,28748,10.94,73532.3,-12.69,-37.33,-38.49,0,*6F
1485367501.51,28749,10.94,73530.3,-12.69,-37.27,-38.55,0,*66
1485367502.78,28750,10.94,73534.8,-12.69,-37.21,-38.29,0,*63
1485367504.0,28751,10.94,73532.5,-12.73,-37.27,-38.43,0,*63
1485367505.23,28752,10.94,73530.0,-12.73,-37.39,-38.43,0,*6F
1485367506.45,28753,10.94,73526.0,-12.69,-37.33,-38.55,0,*68
1485367507.69,28754,10.94,73528.0,-12.69,-37.33,-38.49,0,*62
1485367508.91,28755,10.94,73522.5,-12.69,-37.27,-38.35,0,*6D
1485367510.15,28756,10.94,73526.0,-12.73,-37.39,-38.55,0,*6C
1485367511.39,28757,10.94,73536.5,-12.69,-37.15,-38.11,0,*68
1485367512.6,28758,10.94,73534.3,-12.73,-37.03,-38.05,0,*6E
1485367513.84,28759,10.94,73524.5,-12.69,-37.03,-37.99,0,*6E
1485367515.05,28760,10.94,73512.8,-12.69,-37.15,-38.17,0,*6A
1485367516.29,28761,10.94,73504.8,-12.69,-37.15,-38.11,0,*6D
1485367517.54,28762,10.94,73498.8,-12.73,-37.21,-38.43,0,*65
1485367518.78,28763,10.94,73504.5,-12.73,-37.21,-38.55,0,*63
1485367520.03,28764,10.94,73512.5,-12.69,-37.39,-38.55,0,*66
1485367521.27,28765,10.94,73512.5,-12.69,-37.39,-38.55,0,*67
1485367522.51,28766,10.94,73512.5,-12.69,-37.57,-38.67,0,*6D
1485367523.77,28767,10.94,73522.5,-12.69,-37.51,-38.67,0,*6A
1485367524.98,28768,10.94,73522.3,-12.73,-37.57,-38.73,0,*6D
1485367526.19,28769,10.94,73520.3,-12.73,-37.57,-38.55,0,*68
1485367527.42,28770,10.94,73530.8,-12.73,-37.75,-38.91,0,*68
1485367528.63,28771,10.94,73530.8,-12.73,-37.75,-38.97,0,*6F
1485367529.87,28772,10.94,73534.5,-12.73,-37.75,-38.91,0,*6A
1485367531.11,28773,10.94,73530.5,-12.73,-37.81,-38.97,0,*66
1485367532.35,28774,10.94,73532.0,-12.75,-37.87,-38.97,0,*61
1485367533.64,28775,10.94,73540.5,-12.75,-37.99,-39.15,0,*64
1485367534.91,28776,10.94,73538.8,-12.75,-37.81,-39.09,0,*63
1485367536.18,28777,10.94,73532.5,-12.75,-37.81,-39.09,0,*62
1485367537.44,28778,10.94,73526.5,-12.77,-37.69,-39.03,0,*63
1485367538.67,28779,10.94,73528.0,-12.75,-37.75,-38.97,0,*61
1485367539.91,28780,10.94,73530.8,-12.77,-37.87,-39.03,0,*64
1485367541.18,28781,10.94,73530.0,-12.77,-37.81,-39.03,0,*63
1485367542.41,28782,10.94,73528.0,-12.77,-37.87,-39.03,0,*66
1485367543.65,28783,10.94,73532.8,-12.77,-37.87,-39.03,0,*67
1485367544.91,28784,10.94,73528.0,-12.77,-37.93,-39.03,0,*65
1485367546.18,28785,10.94,73526.5,-12.79,-37.87,-39.03,0,*6F
1485367547.47,28786,10.94,73528.3,-12.79,-37.93,-39.03,0,*69
1485367548.7,28787,10.94,73532.3,-12.77,-37.87,-39.03,0,*63
1485367549.96,28788,10.94,73526.5,-12.77,-37.93,-39.03,0,*69
1485367551.25,28789,10.94,73530.8,-12.79,-37.93,-39.03,0,*66
1485367552.54,28790,10.94,73520.5,-12.79,-37.93,-39.03,0,*6E
1485367553.78,28791,10.94,73512.3,-12.81,-37.87,-39.03,0,*6D
1485367555.02,28792,10.94,73520.3,-12.81,-37.87,-39.03,0,*6E
1485367556.28,28793,10.94,73514.8,-12.81,-37.93,-39.15,0,*6D
1485367557.57,28794,10.94,73518.3,-12.79,-37.93,-39.03,0,*6A
1485367558.86,28795,10.94,73514.3,-12.79,-37.93,-39.03,0,*6B
1485367560.12,28796,10.94,73518.5,-12.81,-37.63,-38.67,0,*63
1485367561.39,28797,10.94,73526.0,-12.79,-37.63,-38.61,0,*63
1485367562.63,28798,10.94,73532.3,-12.81,-37.45,-38.49,0,*65
1485367563.85,28799,10.94,73532.5,-12.81,-37.33,-38.43,0,*6F
1485367565.09,28800,10.94,73524.0,-12.81,-37.51,-38.61,0,*64
1485367566.35,28801,10.94,73528.5,-12.81,-37.51,-38.67,0,*63
1485367567.62,28802,10.94,73520.3,-12.81,-37.51,-38.67,0,*60
1485367568.91,28803,10.94,73520.5,-12.79,-37.51,-38.79,0,*69
1485367570.15,28804,10.94,73518.8,-12.81,-37.63,-38.85,0,*6B
1485367571.37,28805,10.94,73520.5,-12.81,-37.87,-38.97,0,*63
1485367572.6,28806,10.94,73522.8,-12.81,-37.93,-38.97,0,*65
1485367573.84,28807,10.94,73520.0,-12.81,-37.93,-38.97,0,*64
1485367575.1,28808,10.94,73522.3,-12.81,-37.93,-39.03,0,*67
1485367576.34,28809,10.94,73514.5,-12.81,-37.69,-38.97,0,*6F
1485367577.59,28810,10.94,73520.8,-12.81,-37.81,-38.85,0,*62
1485367578.86,28811,10.94,73520.5,-12.81,-37.81,-38.79,0,*60
1485367580.1,28812,10.94,73522.5,-12.85,-37.87,-39.03,0,*6D
1485367581.31,28813,10.94,73526.5,-12.85,-37.75,-38.85,0,*6E
1485367582.53,28814,10.94,73528.8,-12.85,-37.75,-38.85,0,*69
1485367583.77,28815,10.94,73526.5,-12.85,-37.75,-38.91,0,*6D
1485367585.01,28816,10.94,73526.8,-12.85,-37.75,-38.91,0,*6E
1485367586.24,28817,10.94,73532.8,-12.85,-37.57,-38.67,0,*66
1485367587.49,28818,10.94,73534.0,-12.85,-37.69,-38.85,0,*68
1485367588.7,28819,10.94,73532.5,-12.85,-37.57,-38.85,0,*64
1485367589.92,28820,10.94,73540.3,-12.85,-37.57,-38.55,0,*63
1485367591.16,28821,10.94,73542.3,-12.85,-37.39,-38.55,0,*6A
1485367592.42,28822,10.94,73536.8,-12.87,-37.63,-38.73,0,*60
1485367593.67,28823,10.94,73536.8,-12.85,-37.39,-38.55,0,*68
1485367594.94,28824,10.94,73534.0,-12.85,-37.39,-38.49,0,*62
1485367596.2,28825,10.94,73532.3,-12.85,-37.39,-38.49,0,*63
1485367597.45,28826,10.94,73532.0,-12.85,-37.21,-38.35,0,*62
1485367598.67,28827,10.94,73536.0,-12.85,-37.33,-38.35,0,*60
1485367599.89,28828,10.94,73538.5,-12.85,-37.33,-38.35,0,*6F
1485367601.13,28829,10.94,73542.3,-12.85,-37.39,-38.55,0,*62
1485367602.4,28830,10.94,73534.5,-12.85,-37.51,-38.49,0,*69
1485367603.67,28831,10.94,73520.5,-12.85,-37.51,-38.49,0,*68
1485367604.91,28832,10.94,73514.3,-12.85,-37.39,-38.55,0,*68
1485367606.15,28833,10.94,73496.8,-12.85,-37.51,-38.55,0,*67
1485367607.4,28834,10.94,73504.0,-12.85,-37.51,-38.55,0,*60
1485367608.63,28835,10.94,73504.5,-12.85,-37.69,-38.73,0,*6E
1485367609.9,28836,10.94,73524.8,-12.85,-37.69,-38.67,0,*68
1485367611.11,28837,10.94,73528.8,-12.85,-37.33,-38.17,0,*61
1485367612.33,28838,10.94,73520.0,-12.85,-37.33,-38.17,0,*6E
1485367613.57,28839,10.94,73524.8,-12.85,-37.15,-37.99,0,*62
1485367614.81,28840,10.94,73526.8,-12.81,-36.67,-37.51,0,*68
1485367616.05,28841,10.94,73540.8,-12.81,-37.15,-37.93,0,*63
1485367617.3,28842,10.94,73538.3,-12.79,-36.97,-37.87,0,*69
1485367618.55,28843,10.94,73538.3,-12.81,-37.09,-37.87,0,*69
1485367619.82,28844,10.94,73538.8,-12.79,-37.15,-37.93,0,*61
1485367621.06,28845,10.94,73534.3,-12.81,-36.97,-37.81,0,*6F
1485367622.34,28846,10.94,73524.3,-12.79,-37.09,-37.87,0,*6B
1485367623.6,28847,10.94,73522.5,-12.77,-37.09,-37.93,0,*61
1485367624.89,28848,10.94,73522.8,-12.79,-37.09,-37.93,0,*60
1485367626.13,28849,10.94,73512.5,-12.77,-37.45,-38.49,0,*6F
1485367627.37,28850,10.94,73512.3,-12.77,-37.51,-38.61,0,*68
1485367628.61,28851,10.94,73508.3,-12.77,-37.27,-38.23,0,*6E
1485367629.85,28852,10.94,73504.3,-12.77,-37.51,-38.61,0,*6A
1485367631.11,28853,10.94,73516.0,-12.77,-37.51,-38.67,0,*6D
1485367632.37,28854,10.94,73522.8,-12.77,-37.63,-38.67,0,*6B
1485367633.64,28855,10.94,73522.3,-12.77,-37.81,-38.79,0,*69
1485367634.86,28856,10.94,73532.5,-12.77,-37.87,-38.85,0,*6F
1485367636.07,28857,10.94,73532.3,-12.77,-37.75,-38.73,0,*6A
1485367637.36,28858,10.94,73524.3,-12.79,-37.51,-38.67,0,*68
1485367638.65,28859,10.94,73528.5,-12.79,-37.69,-38.67,0,*62
1485367639.93,28860,10.94,73524.3,-12.79,-37.81,-38.85,0,*62
1485367641.17,28861,10.94,73522.5,-12.77,-37.81,-38.85,0,*6D
1485367642.38,28862,10.94,73514.5,-12.77,-37.87,-38.97,0,*6B
1485367643.63,28863,10.94,73518.8,-12.77,-37.93,-38.85,0,*6C
1485367644.89,28864,10.94,73520.0,-12.79,-37.87,-39.03,0,*6F
1485367646.14,28865,10.94,73522.0,-12.79,-37.87,-38.85,0,*61
1485367647.43,28866,10.94,73528.8,-12.79,-37.69,-38.79,0,*61
1485367648.72,28867,10.94,73528.0,-12.79,-37.69,-38.67,0,*6F
1485367649.97,28868,10.94,73530.5,-12.81,-37.45,-38.29,0,*63
1485367651.24,28869,10.94,73532.3,-12.79,-36.97,-37.81,0,*66
1485367652.51,28870,10.94,73534.8,-12.79,-37.15,-38.23,0,*62
1485367653.78,28871,10.94,73534.3,-12.79,-37.27,-38.29,0,*68
1485367655.02,28872,10.94,73530.8,-12.77,-37.51,-38.61,0,*68
1485367656.26,28873,10.94,73524.5,-12.77,-37.63,-38.61,0,*68
1485367657.52,28874,10.94,73524.0,-12.75,-37.63,-38.73,0,*6E
1485367658.79,28875,10.94,73524.0,-12.77,-37.81,-38.67,0,*64
1485367660.03,28876,10.94,73514.0,-12.77,-37.87,-38.79,0,*6E
1485367661.29,28877,10.94,73502.8,-12.77,-37.93,-39.03,0,*66
1485367662.52,28878,10.94,73510.0,-12.75,-38.05,-38.97,0,*67
1485367663.76,28879,10.94,73514.3,-12.77,-38.11,-38.97,0,*61
1485367664.99,28880,10.94,73530.3,-12.77,-38.05,-39.03,0,*6E
1485367666.24,28881,10.94,73530.3,-12.77,-38.11,-39.03,0,*6A
1485367667.54,28882,10.94,73532.3,-12.79,-37.69,-38.49,0,*68
1485367668.75,28883,10.94,73534.3,-12.77,-37.33,-38.17,0,*63
1485367670.01,28884,10.94,73538.5,-12.77,-37.09,-37.81,0,*6D
1485367671.26,28885,10.94,73540.8,-12.77,-36.73,-37.63,0,*6C
1485367672.55,28886,10.94,73540.3,-12.75,-36.61,-37.39,0,*61
1485367673.82,28887,10.94,73542.8,-12.75,-36.85,-37.63,0,*65
1485367675.09,28888,10.94,73538.3,-12.75,-37.21,-38.05,0,*6A
1485367676.3,28889,10.94,73538.8,-12.69,-37.33,-38.17,0,*66
1485367677.54,28890,10.94,73542.5,-12.73,-36.91,-37.75,0,*67
1485367678.79,28891,10.94,73540.0,-12.69,-37.15,-37.99,0,*62
1485367680.03,28892,10.94,73540.8,-12.67,-37.33,-38.29,0,*6F
1485367681.28,28893,10.94,73544.3,-12.69,-37.69,-38.55,0,*64
1485367682.54,28894,10.94,73538.8,-12.69,-37.69,-38.67,0,*62
1485367683.79,28895,10.94,73534.0,-12.69,-37.81,-38.85,0,*69
1485367685.05,28896,10.94,73530.5,-12.69,-38.11,-38.91,0,*69
1485367686.29,28897,10.94,73532.8,-12.69,-38.17,-39.03,0,*64
1485367687.5,28898,10.94,73532.5,-12.69,-38.17,-39.09,0,*61
1485367688.72,28899,10.94,73532.5,-12.73,-38.17,-39.09,0,*6B
1485367689.97,28900,10.94,73544.0,-12.73,-38.23,-39.15,0,*60
1485367691.22,28901,10.94,73544.3,-12.69,-37.99,-38.85,0,*6C
1485367692.48,28902,10.94,73540.5,-12.73,-37.99,-38.91,0,*61